This is the latest recevied weather packets stored in our database for station/object DC1MPP-9. If no packets are shown the sender has not sent any weather packets the latest 10 day(s).
| Time | Temp. | Humidity | Pressure | Rain* | Wind** | Luminosity | Snow |
|---|---|---|---|---|---|---|---|
| 1777984858 | 25° C | 34% | 949 hPa | - | - | - | - |
| 1777984617 | 25° C | 36% | 949 hPa | - | - | - | - |
| 1777984376 | 25° C | 37% | 949 hPa | - | - | - | - |
| 1777984135 | 24.44° C | 39% | 949 hPa | - | - | - | - |
| 1777983894 | 24.44° C | 35% | 949 hPa | - | - | - | - |
| 1777983653 | 25° C | 34% | 949 hPa | - | - | - | - |
| 1777983412 | 25° C | 38% | 949 hPa | - | - | - | - |
| 1777983171 | 25° C | 39% | 949 hPa | - | - | - | - |
| 1777982930 | 25° C | 37% | 949 hPa | - | - | - | - |
| 1777982689 | 24.44° C | 35% | 949 hPa | - | - | - | - |
| 1777982448 | 25° C | 34% | 949 hPa | - | - | - | - |
| 1777982207 | 25° C | 37% | 949 hPa | - | - | - | - |
| 1777981966 | 25.56° C | 35% | 949 hPa | - | - | - | - |
| 1777981725 | 25° C | 40% | 949 hPa | - | - | - | - |
| 1777981484 | 25° C | 36% | 949 hPa | - | - | - | - |
| 1777981243 | 25° C | 43% | 949 hPa | - | - | - | - |
| 1777981002 | 25° C | 35% | 949 hPa | - | - | - | - |
| 1777980760 | 26.67° C | 36% | 949 hPa | - | - | - | - |
| 1777980519 | 26.11° C | 36% | 949 hPa | - | - | - | - |
| 1777980278 | 26.67° C | 37% | 949 hPa | - | - | - | - |
| 1777980037 | 26.67° C | 36% | 949 hPa | - | - | - | - |
| 1777979796 | 26.11° C | 37% | 949 hPa | - | - | - | - |
| 1777979555 | 25.56° C | 38% | 949 hPa | - | - | - | - |
| 1777979314 | 26.11° C | 36% | 949 hPa | - | - | - | - |
| 1777979073 | 26.11° C | 37% | 949 hPa | - | - | - | - |
* Rain since midnight (hover to see other rain measurements)
** Current wind speed in m/s (hover to see current wind gust speed)